| time (UTC) | temp C | wind direction | speed KPH | gust KPH | rain 1hr cm | rain 24hr cm | rain mn cm | humidity % | barometer mb |
| 20260507051549 | 8 | 0 | 0.0 | 6.4 | 0.00 | 0.03 | 0.00 | 92 | 1013.5 |
| 20260507050057 | 8 | 142 | 0.0 | 3.2 | 0.00 | 0.03 | 0.00 | 92 | 1013.7 |
| 20260507044551 | 8 | 67 | 1.6 | 4.8 | 0.00 | 0.03 | 0.00 | 92 | 1013.9 |
| 20260507043051 | 8 | 79 | 0.0 | 4.8 | 0.00 | 0.03 | 0.00 | 92 | 1013.9 |
| 20260507041553 | 8 | 0 | 0.0 | 4.8 | 0.00 | 0.03 | 0.00 | 92 | 1013.8 |
| 20260507040054 | 8 | 124 | 0.0 | 4.8 | 0.00 | 0.03 | 0.00 | 92 | 1013.9 |
| 20260507034553 | 8 | 0 | 0.0 | 3.2 | 0.00 | 0.03 | 0.00 | 92 | 1013.9 |
| 20260507033054 | 8 | 47 | 0.0 | 4.8 | 0.00 | 0.03 | 0.00 | 92 | 1013.9 |
| 20260507031550 | 8 | 0 | 0.0 | 3.2 | 0.00 | 0.03 | 0.00 | 92 | 1014.0 |
| 20260507030055 | 8 | 84 | 0.0 | 3.2 | 0.00 | 0.03 | 0.00 | 92 | 1014.0 |
| 20260507024602 | 8 | 0 | 0.0 | 1.6 | 0.00 | 0.03 | 0.00 | 91 | 1014.0 |
| 20260507023054 | 8 | 0 | 0.0 | 3.2 | 0.00 | 0.03 | 0.00 | 91 | 1014.1 |
| 20260507021559 | 8 | 0 | 0.0 | 3.2 | 0.00 | 0.03 | 0.00 | 91 | 1014.1 |
| 20260507020108 | 8 | 0 | 0.0 | 3.2 | 0.00 | 0.03 | 0.00 | 91 | 1014.2 |
| 20260507014605 | 9 | 0 | 0.0 | 1.6 | 0.00 | 0.05 | 0.00 | 91 | 1014.3 |
| 20260507013055 | 9 | 0 | 0.0 | 1.6 | 0.00 | 0.05 | 0.00 | 91 | 1014.3 |
| 20260507011555 | 9 | 0 | 0.0 | 1.6 | 0.00 | 0.05 | 0.00 | 91 | 1014.3 |
| 20260507010053 | 9 | 0 | 0.0 | 1.6 | 0.00 | 0.05 | 0.00 | 91 | 1014.5 |
| 20260507004552 | 9 | 0 | 0.0 | 0.0 | 0.00 | 0.05 | 0.00 | 91 | 1014.6 |
| 20260507003055 | 10 | 0 | 0.0 | 0.0 | 0.00 | 0.05 | 0.00 | 91 | 1014.5 |
| 20260507001557 | 10 | 0 | 0.0 | 0.0 | 0.00 | 0.05 | 0.00 | 90 | 1014.7 |
| 20260507000054 | 10 | 0 | 0.0 | 1.6 | 0.00 | 0.05 | 0.00 | 90 | 1014.8 |
| 20260506234600 | 10 | 0 | 0.0 | 1.6 | 0.00 | 0.08 | 0.00 | 90 | 1014.9 |
| 20260506233052 | 10 | 0 | 0.0 | 1.6 | 0.00 | 0.08 | 0.00 | 90 | 1014.9 |
| 20260506231558 | 10 | 77 | 0.0 | 1.6 | 0.00 | 0.08 | 0.00 | 90 | 1014.9 |
| 20260506230059 | 10 | 0 | 0.0 | 1.6 | 0.00 | 0.08 | 0.00 | 90 | 1014.9 |
| 20260506224551 | 11 | 0 | 0.0 | 1.6 | 0.00 | 0.08 | 0.00 | 90 | 1014.9 |
| 20260506223058 | 11 | 0 | 0.0 | 3.2 | 0.00 | 0.08 | 0.00 | 90 | 1015.1 |
| 20260506221553 | 11 | 0 | 0.0 | 0.0 | 0.00 | 0.08 | 0.00 | 89 | 1014.9 |
| 20260506220052 | 11 | 0 | 0.0 | 1.6 | 0.00 | 0.08 | 0.00 | 88 | 1014.8 |
| 20260506214555 | 11 | 87 | 0.0 | 1.6 | 0.00 | 0.08 | 0.08 | 88 | 1014.9 |
| 20260506213127 | 11 | 0 | 0.0 | 0.0 | 0.00 | 0.08 | 0.08 | 87 | 1015.0 |
| 20260506211604 | 11 | 0 | 0.0 | 0.0 | 0.00 | 0.08 | 0.08 | 87 | 1015.0 |
| 20260506210055 | 11 | 0 | 0.0 | 1.6 | 0.00 | 0.08 | 0.08 | 86 | 1015.0 |
| 20260506204557 | 11 | 0 | 0.0 | 1.6 | 0.00 | 0.08 | 0.08 | 85 | 1015.0 |
| 20260506203053 | 12 | 0 | 0.0 | 1.6 | 0.00 | 0.08 | 0.08 | 85 | 1014.9 |
| 20260506201604 | 12 | 0 | 0.0 | 0.0 | 0.00 | 0.08 | 0.08 | 84 | 1014.7 |
| 20260506200100 | 12 | 0 | 0.0 | 0.0 | 0.00 | 0.08 | 0.08 | 83 | 1014.7 |
| 20260506194604 | 12 | 0 | 0.0 | 1.6 | 0.00 | 0.13 | 0.08 | 82 | 1014.6 |
| 20260506193053 | 12 | 0 | 0.0 | 3.2 | 0.00 | 0.13 | 0.08 | 81 | 1014.4 |
| 20260506191553 | 12 | 0 | 0.0 | 1.6 | 0.00 | 0.13 | 0.08 | 81 | 1014.3 |
| 20260506190049 | 13 | 0 | 0.0 | 1.6 | 0.00 | 0.13 | 0.08 | 79 | 1014.4 |
| 20260506184604 | 13 | 0 | 0.0 | 1.6 | 0.00 | 0.28 | 0.08 | 78 | 1014.3 |
| 20260506183100 | 13 | 0 | 0.0 | 1.6 | 0.00 | 0.28 | 0.08 | 78 | 1014.3 |
| 20260506181551 | 14 | 0 | 0.0 | 1.6 | 0.00 | 0.28 | 0.08 | 78 | 1014.3 |
| 20260506180055 | 15 | 0 | 0.0 | 0.0 | 0.00 | 0.28 | 0.08 | 76 | 1014.3 |
| 20260506174551 | 16 | 174 | 0.0 | 1.6 | 0.00 | 0.28 | 0.08 | 74 | 1014.3 |
| 20260506173053 | 17 | 176 | 0.0 | 4.8 | 0.00 | 0.28 | 0.08 | 71 | 1014.4 |
| 20260506171553 | 17 | 176 | 1.6 | 4.8 | 0.00 | 0.28 | 0.08 | 70 | 1014.4 |
| 20260506170107 | 17 | 0 | 0.0 | 3.2 | 0.00 | 0.28 | 0.08 | 70 | 1014.4 |
| 20260506164556 | 16 | 300 | 1.6 | 6.4 | 0.00 | 0.28 | 0.08 | 72 | 1014.4 |
| 20260506163110 | 17 | 194 | 1.6 | 6.4 | 0.00 | 0.28 | 0.08 | 71 | 1014.6 |
| 20260506161601 | 16 | 261 | 1.6 | 6.4 | 0.00 | 0.28 | 0.08 | 75 | 1014.6 |
| 20260506160109 | 16 | 203 | 1.6 | 6.4 | 0.00 | 0.28 | 0.08 | 74 | 1014.6 |
| 20260506154555 | 16 | 176 | 1.6 | 6.4 | 0.00 | 0.28 | 0.08 | 79 | 1014.7 |
| 20260506153050 | 15 | 110 | 1.6 | 6.4 | 0.00 | 0.28 | 0.08 | 80 | 1014.6 |
| 20260506151551 | 15 | 176 | 1.6 | 4.8 | 0.00 | 0.28 | 0.08 | 81 | 1014.9 |
| 20260506150053 | 15 | 176 | 0.0 | 1.6 | 0.00 | 0.28 | 0.08 | 83 | 1015.1 |
| 20260506144606 | 14 | 0 | 1.6 | 6.4 | 0.00 | 0.28 | 0.08 | 82 | 1015.1 |
| 20260506143103 | 15 | 163 | 0.0 | 4.8 | 0.00 | 0.28 | 0.08 | 83 | 1015.4 |
| 20260506141550 | 15 | 146 | 0.0 | 4.8 | 0.00 | 0.28 | 0.05 | 82 | 1015.5 |
| 20260506140054 | 15 | 77 | 0.0 | 4.8 | 0.00 | 0.28 | 0.05 | 79 | 1015.5 |
| 20260506134556 | 16 | 209 | 1.6 | 6.4 | 0.00 | 0.28 | 0.05 | 76 | 1015.3 |
| 20260506133052 | 16 | 195 | 3.2 | 12.9 | 0.00 | 0.28 | 0.05 | 77 | 1015.3 |
| 20260506131556 | 15 | 148 | 3.2 | 6.4 | 0.00 | 0.28 | 0.05 | 77 | 1015.5 |
| 20260506130059 | 15 | 196 | 3.2 | 11.3 | 0.00 | 0.28 | 0.05 | 78 | 1015.3 |
| 20260506124552 | 15 | 308 | 3.2 | 8.0 | 0.00 | 0.28 | 0.05 | 78 | 1015.2 |
| 20260506123055 | 15 | 193 | 4.8 | 12.9 | 0.00 | 0.28 | 0.05 | 78 | 1015.0 |
| 20260506121557 | 15 | 324 | 4.8 | 11.3 | 0.00 | 0.28 | 0.05 | 75 | 1014.9 |
| 20260506120053 | 16 | 202 | 3.2 | 8.0 | 0.00 | 0.28 | 0.05 | 75 | 1015.0 |
| 20260506114556 | 16 | 358 | 3.2 | 14.5 | 0.00 | 0.28 | 0.05 | 74 | 1015.0 |
| 20260506113054 | 16 | 46 | 3.2 | 6.4 | 0.00 | 0.28 | 0.05 | 78 | 1015.0 |
| 20260506111554 | 15 | 172 | 3.2 | 9.7 | 0.00 | 0.28 | 0.05 | 79 | 1015.0 |
| 20260506110050 | 15 | 25 | 4.8 | 11.3 | 0.00 | 0.28 | 0.05 | 81 | 1015.0 |
| 20260506104553 | 15 | 295 | 3.2 | 8.0 | 0.00 | 0.28 | 0.05 | 81 | 1015.0 |
| 20260506103054 | 15 | 260 | 3.2 | 9.7 | 0.00 | 0.25 | 0.03 | 76 | 1015.0 |
| 20260506101554 | 15 | 333 | 3.2 | 16.1 | 0.00 | 0.25 | 0.03 | 76 | 1015.0 |
| 20260506100055 | 15 | 292 | 3.2 | 8.0 | 0.00 | 0.25 | 0.03 | 75 | 1014.9 |
| 20260506094601 | 15 | 283 | 3.2 | 9.7 | 0.00 | 0.25 | 0.03 | 74 | 1014.8 |
| 20260506093052 | 14 | 327 | 3.2 | 8.0 | 0.00 | 0.25 | 0.03 | 75 | 1014.7 |
| 20260506091550 | 14 | 193 | 3.2 | 11.3 | 0.00 | 0.25 | 0.03 | 77 | 1014.6 |
| 20260506090056 | 14 | 8 | 3.2 | 9.7 | 0.00 | 0.25 | 0.03 | 77 | 1014.6 |
| 20260506084612 | 14 | 321 | 3.2 | 8.0 | 0.00 | 0.25 | 0.03 | 77 | 1014.5 |
| 20260506083056 | 14 | 77 | 4.8 | 12.9 | 0.00 | 0.25 | 0.03 | 76 | 1014.5 |
| 20260506081556 | 14 | 302 | 4.8 | 9.7 | 0.00 | 0.25 | 0.03 | 73 | 1014.2 |
| 20260506073057 | 14 | 300 | 6.4 | 14.5 | 0.00 | 0.25 | 0.03 | 73 | 1014.2 |
| 20260506071555 | 14 | 334 | 4.8 | 14.5 | 0.00 | 0.25 | 0.03 | 73 | 1014.1 |
| 20260506061602 | 13 | 176 | 3.2 | 11.3 | 0.00 | 0.25 | 0.03 | 76 | 1014.0 |